Time,TemperatureF,DewpointF,PressureIn,WindDirection,WindDirectionDegrees,WindSpeedMPH,WindSpeedGustMPH,Humidity,HourlyPrecipIn,Conditions,Clouds,dailyrainin,SoftwareType,DateUTC
2012-05-07 00:01:00,75.7,71.9,29.83,NE,38,0.0,0.0,88,0.00,,,0.00,VWS V13.01,2012-05-07 05:01:00,
2012-05-07 00:06:00,75.7,71.9,29.83,NE,38,0.0,0.0,88,0.00,,,0.00,VWS V13.01,2012-05-07 05:06:00,
2012-05-07 00:11:00,75.5,71.7,29.83,NE,38,0.0,0.0,88,0.00,,,0.00,VWS V13.01,2012-05-07 05:11:00,
2012-05-07 00:16:00,75.5,71.7,29.83,NE,38,0.0,0.0,88,0.00,,,0.00,VWS V13.01,2012-05-07 05:16:00,
2012-05-07 00:21:00,75.3,71.5,29.83,NE,38,0.0,0.0,88,0.00,,,0.00,VWS V13.01,2012-05-07 05:21:00,
2012-05-07 00:26:00,75.1,71.3,29.83,NE,38,0.0,0.0,88,0.00,,,0.00,VWS V13.01,2012-05-07 05:26:00,
2012-05-07 00:31:00,75.0,71.2,29.83,NE,38,0.0,0.0,88,0.00,,,0.00,VWS V13.01,2012-05-07 05:31:00,
2012-05-07 00:36:00,75.0,71.2,29.83,NE,38,0.0,0.0,88,0.00,,,0.00,VWS V13.01,2012-05-07 05:36:00,
2012-05-07 00:41:00,75.0,71.2,29.83,NE,38,0.0,0.0,88,0.00,,,0.00,VWS V13.01,2012-05-07 05:41:00,
2012-05-07 00:46:00,74.8,71.3,29.83,NE,38,0.0,0.0,89,0.00,,,0.00,VWS V13.01,2012-05-07 05:46:00,
2012-05-07 00:51:00,74.8,71.3,29.83,NE,38,0.0,0.0,89,0.00,,,0.00,VWS V13.01,2012-05-07 05:51:00,
2012-05-07 00:56:00,74.6,71.2,29.83,NE,38,0.0,0.0,89,0.00,,,0.00,VWS V13.01,2012-05-07 05:56:00,
2012-05-07 01:01:00,74.6,71.2,29.83,NE,38,0.0,0.0,89,0.00,,,0.00,VWS V13.01,2012-05-07 06:01:00,
2012-05-07 01:06:00,74.4,71.3,29.83,NE,38,0.0,0.0,90,0.00,,,0.00,VWS V13.01,2012-05-07 06:06:00,
2012-05-07 01:11:00,74.2,71.1,29.83,NE,38,0.0,0.0,90,0.00,,,0.00,VWS V13.01,2012-05-07 06:11:00,
2012-05-07 01:16:00,74.1,71.3,29.83,NE,38,0.0,0.0,91,0.00,,,0.00,VWS V13.01,2012-05-07 06:16:00,
2012-05-07 01:21:00,73.9,71.4,29.83,NE,38,0.0,0.0,92,0.00,,,0.00,VWS V13.01,2012-05-07 06:21:00,
2012-05-07 01:26:00,73.9,71.7,29.83,NE,38,0.0,0.0,93,0.00,,,0.00,VWS V13.01,2012-05-07 06:26:00,
2012-05-07 01:31:00,73.7,71.9,29.83,NE,38,0.0,0.0,94,0.00,,,0.00,VWS V13.01,2012-05-07 06:31:00,
2012-05-07 01:36:00,73.7,72.2,29.83,NE,38,0.0,0.0,95,0.00,,,0.00,VWS V13.01,2012-05-07 06:36:00,
2012-05-07 01:41:00,73.5,72.3,29.83,NE,38,0.0,0.0,96,0.00,,,0.00,VWS V13.01,2012-05-07 06:41:00,
2012-05-07 01:46:00,73.5,72.3,29.83,NNE,29,0.0,0.0,96,0.00,,,0.00,VWS V13.01,2012-05-07 06:46:00,
2012-05-07 01:51:00,73.5,72.6,29.83,NNE,25,0.0,0.0,97,0.00,,,0.00,VWS V13.01,2012-05-07 06:51:00,
2012-05-07 01:56:00,73.3,72.4,29.83,NNE,25,0.0,0.0,97,0.00,,,0.00,VWS V13.01,2012-05-07 06:56:00,
2012-05-07 02:01:00,73.3,72.4,29.80,NNE,25,0.0,0.0,97,0.00,,,0.00,VWS V13.01,2012-05-07 07:01:00,
2012-05-07 02:06:00,73.2,72.3,29.80,NNE,25,0.0,0.0,97,0.00,,,0.00,VWS V13.01,2012-05-07 07:06:00,
2012-05-07 02:11:00,73.2,72.3,29.80,NNE,25,0.0,0.0,97,0.00,,,0.00,VWS V13.01,2012-05-07 07:11:00,
2012-05-07 02:16:00,73.2,72.6,29.83,NNE,25,0.0,0.0,98,0.00,,,0.00,VWS V13.01,2012-05-07 07:16:00,
2012-05-07 02:21:00,73.2,72.6,29.83,NNE,25,0.0,0.0,98,0.00,,,0.00,VWS V13.01,2012-05-07 07:21:00,
2012-05-07 02:26:00,73.0,72.4,29.83,NNE,25,0.0,0.0,98,0.00,,,0.00,VWS V13.01,2012-05-07 07:26:00,
2012-05-07 02:31:00,73.0,72.4,29.83,NNE,25,0.0,0.0,98,0.00,,,0.00,VWS V13.01,2012-05-07 07:31:00,
2012-05-07 02:36:00,73.0,72.4,29.83,NNE,25,0.0,0.0,98,0.00,,,0.00,VWS V13.01,2012-05-07 07:36:00,
2012-05-07 02:41:00,73.0,72.7,29.83,NNE,25,0.0,0.0,99,0.00,,,0.00,VWS V13.01,2012-05-07 07:41:00,
2012-05-07 02:46:00,73.2,72.9,29.83,NNE,25,0.0,0.0,99,0.00,,,0.00,VWS V13.01,2012-05-07 07:46:00,
2012-05-07 02:51:00,73.3,73.3,29.83,SE,124,0.0,0.0,100,0.00,,,0.00,VWS V13.01,2012-05-07 07:51:00,
2012-05-07 02:56:00,73.5,73.5,29.83,SSE,164,0.0,0.0,100,0.00,,,0.00,VWS V13.01,2012-05-07 07:56:00,
2012-05-07 03:01:00,73.5,73.5,29.83,North,6,0.0,0.0,100,0.00,,,0.00,VWS V13.01,2012-05-07 08:01:00,
2012-05-07 03:06:00,73.7,73.7,29.83,North,7,0.0,0.0,100,0.00,,,0.00,VWS V13.01,2012-05-07 08:06:00,
2012-05-07 03:11:00,73.7,73.4,29.83,North,6,0.0,0.0,99,0.00,,,0.00,VWS V13.01,2012-05-07 08:11:00,
2012-05-07 03:16:00,73.7,73.4,29.83,North,7,0.0,0.0,99,0.00,,,0.00,VWS V13.01,2012-05-07 08:16:00,
2012-05-07 03:21:00,73.7,73.4,29.83,North,7,0.0,0.0,99,0.00,,,0.00,VWS V13.01,2012-05-07 08:21:00,
2012-05-07 03:26:00,73.7,73.1,29.83,North,7,0.0,0.0,98,0.00,,,0.00,VWS V13.01,2012-05-07 08:26:00,
2012-05-07 03:31:00,73.7,73.1,29.83,North,6,0.0,0.0,98,0.00,,,0.00,VWS V13.01,2012-05-07 08:31:00,
2012-05-07 03:36:00,73.7,73.1,29.83,North,6,0.0,0.0,98,0.00,,,0.00,VWS V13.01,2012-05-07 08:36:00,
2012-05-07 03:41:00,73.5,72.6,29.83,North,6,0.0,0.0,97,0.00,,,0.00,VWS V13.01,2012-05-07 08:41:00,
2012-05-07 03:46:00,73.5,72.6,29.83,North,7,0.0,0.0,97,0.00,,,0.00,VWS V13.01,2012-05-07 08:46:00,
2012-05-07 03:51:00,73.3,72.4,29.83,SW,226,0.0,0.0,97,0.00,,,0.00,VWS V13.01,2012-05-07 08:51:00,
2012-05-07 03:56:00,73.3,72.1,29.83,SW,226,0.0,0.0,96,0.00,,,0.00,VWS V13.01,2012-05-07 08:56:00,
2012-05-07 04:01:00,73.3,72.1,29.83,SW,226,0.0,0.0,96,0.00,,,0.00,VWS V13.01,2012-05-07 09:01:00,
2012-05-07 04:06:00,73.2,72.0,29.83,SW,226,0.0,0.0,96,0.00,,,0.00,VWS V13.01,2012-05-07 09:06:00,
2012-05-07 04:11:00,73.2,72.0,29.83,SW,226,0.0,0.0,96,0.00,,,0.00,VWS V13.01,2012-05-07 09:11:00,
2012-05-07 04:16:00,73.0,71.8,29.83,SSE,164,0.0,0.0,96,0.00,,,0.00,VWS V13.01,2012-05-07 09:16:00,
2012-05-07 04:21:00,73.0,71.8,29.83,SSE,164,0.0,0.0,96,0.00,,,0.00,VWS V13.01,2012-05-07 09:21:00,
2012-05-07 04:26:00,72.8,71.6,29.83,SSE,164,0.0,0.0,96,0.00,,,0.00,VWS V13.01,2012-05-07 09:26:00,
2012-05-07 04:31:00,72.8,71.6,29.80,SSE,164,0.0,0.0,96,0.00,,,0.00,VWS V13.01,2012-05-07 09:31:00,
2012-05-07 04:36:00,72.8,71.9,29.80,SSE,164,0.0,0.0,97,0.00,,,0.00,VWS V13.01,2012-05-07 09:36:00,
2012-05-07 04:41:00,72.6,71.7,29.80,SSE,164,0.0,0.0,97,0.00,,,0.00,VWS V13.01,2012-05-07 09:41:00,
2012-05-07 04:46:00,72.6,72.0,29.83,SSE,164,0.0,0.0,98,0.00,,,0.00,VWS V13.01,2012-05-07 09:46:00,
2012-05-07 04:52:00,72.8,72.2,29.83,West,268,3.1,3.1,98,0.00,,,0.00,VWS V13.01,2012-05-07 09:52:00,
2012-05-07 04:56:00,75.9,61.9,29.83,NW,311,15.4,19.2,62,0.00,,,0.00,VWS V13.01,2012-05-07 09:56:00,
2012-05-07 05:01:00,76.0,61.2,29.85,NW,322,10.1,11.0,60,0.00,,,0.00,VWS V13.01,2012-05-07 10:01:00,
2012-05-07 05:06:00,75.9,59.1,29.85,NW,325,5.8,5.8,56,0.00,,,0.00,VWS V13.01,2012-05-07 10:06:00,
2012-05-07 05:11:00,75.5,57.7,29.85,NNE,12,7.6,13.2,54,0.00,,,0.00,VWS V13.01,2012-05-07 10:11:00,
2012-05-07 05:16:00,75.1,56.3,29.83,West,279,10.5,10.5,52,0.00,,,0.00,VWS V13.01,2012-05-07 10:16:00,
2012-05-07 05:21:00,74.8,56.0,29.83,NNW,348,4.9,4.9,52,0.00,,,0.00,VWS V13.01,2012-05-07 10:21:00,
2012-05-07 05:26:00,74.6,55.8,29.83,NE,52,5.4,6.3,52,0.00,,,0.00,VWS V13.01,2012-05-07 10:26:00,
2012-05-07 05:31:00,74.2,56.0,29.83,NW,323,3.1,5.4,53,0.00,,,0.00,VWS V13.01,2012-05-07 10:31:00,
2012-05-07 05:36:00,73.9,55.7,29.83,North,356,5.8,5.8,53,0.00,,,0.00,VWS V13.01,2012-05-07 10:36:00,
2012-05-07 05:41:00,73.7,56.0,29.83,ENE,68,4.0,4.0,54,0.00,,,0.00,VWS V13.01,2012-05-07 10:41:00,
2012-05-07 05:46:00,73.3,55.7,29.80,NE,52,3.1,3.1,54,0.00,,,0.00,VWS V13.01,2012-05-07 10:46:00,
2012-05-07 05:51:00,73.0,55.4,29.80,NNE,27,2.7,2.7,54,0.00,,,0.00,VWS V13.01,2012-05-07 10:51:00,
2012-05-07 05:56:00,72.8,55.7,29.80,South,185,0.0,0.0,55,0.00,,,0.00,VWS V13.01,2012-05-07 10:56:00,
2012-05-07 06:01:00,72.4,55.4,29.80,NNW,335,2.2,2.2,55,0.00,,,0.00,VWS V13.01,2012-05-07 11:01:00,
2012-05-07 06:06:00,72.4,55.9,29.80,ESE,103,0.0,0.0,56,0.00,,,0.00,VWS V13.01,2012-05-07 11:06:00,
2012-05-07 06:11:00,72.3,55.7,29.80,ESE,103,0.0,0.0,56,0.00,,,0.00,VWS V13.01,2012-05-07 11:11:00,
2012-05-07 06:16:00,71.9,55.9,29.80,ESE,120,0.0,2.7,57,0.00,,,0.00,VWS V13.01,2012-05-07 11:16:00,
2012-05-07 06:21:00,71.7,55.7,29.80,ESE,113,3.1,3.1,57,0.00,,,0.00,VWS V13.01,2012-05-07 11:21:00,
2012-05-07 06:26:00,71.4,55.8,29.80,NE,46,0.0,0.0,58,0.00,,,0.00,VWS V13.01,2012-05-07 11:26:00,
2012-05-07 06:31:00,71.5,55.5,29.80,NE,40,0.0,0.0,57,0.00,,,0.00,VWS V13.01,2012-05-07 11:31:00,
2012-05-07 06:36:00,71.5,56.0,29.80,SE,131,2.7,4.0,58,0.00,,,0.00,VWS V13.01,2012-05-07 11:36:00,
2012-05-07 06:39:00,71.5,56.0,29.80,SE,143,2.7,3.1,58,0.00,,,0.00,VWS V13.01,2012-05-07 11:39:00,
2012-05-07 06:44:00,71.4,56.3,29.80,East,84,2.7,2.7,59,0.00,,,0.00,VWS V13.01,2012-05-07 11:44:00,
2012-05-07 06:49:00,71.2,56.6,29.80,ESE,113,0.0,2.7,60,0.00,,,0.00,VWS V13.01,2012-05-07 11:49:00,
2012-05-07 06:54:00,71.0,56.4,29.80,ESE,121,0.0,0.0,60,0.00,,,0.00,VWS V13.01,2012-05-07 11:54:00,
2012-05-07 07:00:00,71.0,56.9,29.80,NNW,339,0.0,0.0,61,0.00,,,0.00,VWS V13.01,2012-05-07 12:00:00,
2012-05-07 07:05:00,70.8,57.2,29.80,NNW,339,0.0,0.0,62,0.00,,,0.00,VWS V13.01,2012-05-07 12:05:00,
2012-05-07 07:10:00,70.6,57.4,29.80,East,93,0.0,0.0,63,0.00,,,0.00,VWS V13.01,2012-05-07 12:10:00,
2012-05-07 07:15:00,70.5,57.7,29.83,SE,125,0.0,0.0,64,0.00,,,0.00,VWS V13.01,2012-05-07 12:15:00,
2012-05-07 07:20:00,70.3,57.5,29.83,SE,125,0.0,0.0,64,0.00,,,0.00,VWS V13.01,2012-05-07 12:20:00,
2012-05-07 07:25:00,70.3,58.0,29.83,SE,125,0.0,0.0,65,0.00,,,0.00,VWS V13.01,2012-05-07 12:25:00,
2012-05-07 07:30:00,70.1,58.2,29.85,SE,125,0.0,0.0,66,0.00,,,0.00,VWS V13.01,2012-05-07 12:30:00,
2012-05-07 07:32:00,70.1,58.7,29.85,SE,125,0.0,0.0,67,0.00,,,0.00,VWS V13.01,2012-05-07 12:32:00,
2012-05-07 07:37:00,70.1,59.1,29.85,WSW,256,0.0,0.0,68,0.00,,,0.00,VWS V13.01,2012-05-07 12:37:00,
2012-05-07 07:42:00,70.1,59.9,29.85,WNW,294,0.0,0.0,70,0.00,,,0.00,VWS V13.01,2012-05-07 12:42:00,
2012-05-07 07:47:00,69.9,59.3,29.85,NW,314,0.0,0.0,69,0.00,,,0.00,VWS V13.01,2012-05-07 12:47:00,
2012-05-07 07:52:00,69.9,59.7,29.85,NW,315,0.0,0.0,70,0.00,,,0.00,VWS V13.01,2012-05-07 12:52:00,
2012-05-07 07:57:00,70.1,60.7,29.85,NW,315,0.0,0.0,72,0.00,,,0.00,VWS V13.01,2012-05-07 12:57:00,
2012-05-07 08:02:00,70.3,61.2,29.85,NW,315,0.0,0.0,73,0.00,,,0.00,VWS V13.01,2012-05-07 13:02:00,
2012-05-07 08:07:00,70.6,61.2,29.85,NW,315,0.0,0.0,72,0.00,,,0.00,VWS V13.01,2012-05-07 13:07:00,
2012-05-07 08:12:00,71.0,61.5,29.85,NW,315,0.0,0.0,72,0.00,,,0.00,VWS V13.01,2012-05-07 13:12:00,
2012-05-07 08:17:00,71.7,61.8,29.88,WNW,296,0.0,0.0,71,0.00,,,0.00,VWS V13.01,2012-05-07 13:17:00,
2012-05-07 08:22:00,72.3,60.3,29.88,NNW,336,0.0,0.0,66,0.00,,,0.00,VWS V13.01,2012-05-07 13:22:00,
2012-05-07 08:27:00,73.2,60.7,29.88,ESE,103,0.0,0.0,65,0.00,,,0.00,VWS V13.01,2012-05-07 13:27:00,
2012-05-07 08:32:00,73.7,59.9,29.88,ENE,73,0.0,0.0,62,0.00,,,0.00,VWS V13.01,2012-05-07 13:32:00,
2012-05-07 08:37:00,74.1,57.9,29.88,NE,54,0.0,0.0,57,0.00,,,0.00,VWS V13.01,2012-05-07 13:37:00,
2012-05-07 08:40:00,74.2,58.0,29.88,NE,54,0.0,0.0,57,0.00,,,0.00,VWS V13.01,2012-05-07 13:40:00,
2012-05-07 08:45:00,74.6,60.7,29.85,NNE,33,0.0,0.0,62,0.00,,,0.00,VWS V13.01,2012-05-07 13:45:00,
2012-05-07 08:50:00,74.8,60.0,29.85,NNE,25,0.0,0.0,60,0.00,,,0.00,VWS V13.01,2012-05-07 13:50:00,
2012-05-07 08:55:00,74.8,59.5,29.85,ENE,73,0.0,0.0,59,0.00,,,0.00,VWS V13.01,2012-05-07 13:55:00,
2012-05-07 09:00:00,74.6,57.4,29.88,NE,49,2.7,2.7,55,0.00,,,0.00,VWS V13.01,2012-05-07 14:00:00,
2012-05-07 09:05:00,75.0,57.2,29.88,North,352,0.0,0.0,54,0.00,,,0.00,VWS V13.01,2012-05-07 14:05:00,
2012-05-07 09:10:00,75.3,58.6,29.88,NNE,26,3.1,3.1,56,0.00,,,0.00,VWS V13.01,2012-05-07 14:10:00,
2012-05-07 09:15:00,75.7,59.4,29.88,NE,37,2.2,2.2,57,0.00,,,0.00,VWS V13.01,2012-05-07 14:15:00,
2012-05-07 09:20:00,76.2,59.9,29.88,NNE,25,2.2,2.2,57,0.00,,,0.00,VWS V13.01,2012-05-07 14:20:00,
2012-05-07 09:25:00,76.6,59.2,29.88,North,357,0.0,0.0,55,0.00,,,0.00,VWS V13.01,2012-05-07 14:25:00,
2012-05-07 09:30:00,76.4,58.5,29.88,NE,36,2.2,2.7,54,0.00,,,0.00,VWS V13.01,2012-05-07 14:30:00,
2012-05-07 09:32:00,76.4,58.0,29.88,ENE,57,2.7,3.6,53,0.00,,,0.00,VWS V13.01,2012-05-07 14:32:00,
2012-05-07 09:37:00,76.4,58.5,29.88,ENE,71,3.6,4.0,54,0.00,,,0.00,VWS V13.01,2012-05-07 14:37:00,
2012-05-07 09:42:00,76.4,58.5,29.88,NNE,20,2.7,3.1,54,0.00,,,0.00,VWS V13.01,2012-05-07 14:42:00,
2012-05-07 09:47:00,76.8,58.4,29.88,NNE,30,2.7,3.6,53,0.00,,,0.00,VWS V13.01,2012-05-07 14:47:00,
2012-05-07 09:52:00,77.5,58.5,29.88,NNE,30,2.7,2.7,52,0.00,,,0.00,VWS V13.01,2012-05-07 14:52:00,
2012-05-07 09:57:00,78.2,58.1,29.88,ENE,75,4.0,4.9,50,0.00,,,0.00,VWS V13.01,2012-05-07 14:57:00,
2012-05-07 10:02:00,78.2,58.1,29.88,ENE,71,0.0,0.0,50,0.00,,,0.00,VWS V13.01,2012-05-07 15:02:00,
2012-05-07 10:07:00,78.4,59.3,29.88,ENE,77,0.0,0.0,52,0.00,,,0.00,VWS V13.01,2012-05-07 15:07:00,
2012-05-07 10:12:00,78.7,57.4,29.88,NNE,14,5.8,5.8,48,0.00,,,0.00,VWS V13.01,2012-05-07 15:12:00,
2012-05-07 10:17:00,79.3,57.3,29.91,ENE,68,5.4,5.4,47,0.00,,,0.00,VWS V13.01,2012-05-07 15:17:00,
2012-05-07 10:22:00,79.1,56.6,29.91,ENE,67,3.1,3.1,46,0.00,,,0.00,VWS V13.01,2012-05-07 15:22:00,
2012-05-07 10:27:00,78.9,57.0,29.91,NE,47,4.9,4.9,47,0.00,,,0.00,VWS V13.01,2012-05-07 15:27:00,
2012-05-07 10:32:00,79.3,57.9,29.91,East,94,3.1,5.4,48,0.00,,,0.00,VWS V13.01,2012-05-07 15:32:00,
2012-05-07 10:37:00,79.8,56.6,29.91,NNE,23,6.3,8.1,45,0.00,,,0.00,VWS V13.01,2012-05-07 15:37:00,
2012-05-07 10:42:00,80.4,56.5,29.91,NE,41,5.8,5.8,44,0.00,,,0.00,VWS V13.01,2012-05-07 15:42:00,
2012-05-07 10:47:00,80.5,57.3,29.91,NE,37,4.0,4.0,45,0.00,,,0.00,VWS V13.01,2012-05-07 15:47:00,
2012-05-07 10:52:00,80.7,56.8,29.91,North,8,3.6,4.0,44,0.00,,,0.00,VWS V13.01,2012-05-07 15:52:00,
2012-05-07 10:57:00,81.1,56.5,29.91,NE,46,3.6,3.6,43,0.00,,,0.00,VWS V13.01,2012-05-07 15:57:00,
2012-05-07 11:02:00,81.6,57.6,29.88,NNE,23,4.0,4.0,44,0.00,,,0.00,VWS V13.01,2012-05-07 16:02:00,
2012-05-07 11:07:00,82.0,57.9,29.88,NE,56,2.7,2.7,44,0.00,,,0.00,VWS V13.01,2012-05-07 16:07:00,
2012-05-07 11:12:00,82.2,56.8,29.88,NNE,30,5.8,5.8,42,0.00,,,0.00,VWS V13.01,2012-05-07 16:12:00,
2012-05-07 11:17:00,81.8,56.5,29.88,NE,41,2.7,4.0,42,0.00,,,0.00,VWS V13.01,2012-05-07 16:17:00,
2012-05-07 11:22:00,82.2,59.3,29.88,NNE,24,5.4,5.4,46,0.00,,,0.00,VWS V13.01,2012-05-07 16:22:00,
2012-05-07 11:27:00,82.2,56.8,29.88,North,350,5.4,5.4,42,0.00,,,0.00,VWS V13.01,2012-05-07 16:27:00,
2012-05-07 11:32:00,82.0,56.7,29.88,North,4,3.1,3.6,42,0.00,,,0.00,VWS V13.01,2012-05-07 16:32:00,
2012-05-07 11:37:00,82.3,57.6,29.88,NNE,20,6.3,6.3,43,0.00,,,0.00,VWS V13.01,2012-05-07 16:37:00,
2012-05-07 11:42:00,82.9,57.5,29.88,NNW,331,5.4,5.4,42,0.00,,,0.00,VWS V13.01,2012-05-07 16:42:00,
2012-05-07 11:47:00,82.7,56.6,29.88,North,2,4.0,5.4,41,0.00,,,0.00,VWS V13.01,2012-05-07 16:47:00,
2012-05-07 11:52:00,82.9,57.5,29.88,ESE,121,8.1,8.1,42,0.00,,,0.00,VWS V13.01,2012-05-07 16:52:00,
2012-05-07 11:57:00,82.2,57.5,29.88,NNE,19,6.3,6.3,43,0.00,,,0.00,VWS V13.01,2012-05-07 16:57:00,
2012-05-07 12:02:00,82.3,57.6,29.88,East,91,4.9,4.9,43,0.00,,,0.00,VWS V13.01,2012-05-07 17:02:00,
2012-05-07 12:07:00,82.3,58.3,29.88,NE,48,2.7,3.1,44,0.00,,,0.00,VWS V13.01,2012-05-07 17:07:00,
2012-05-07 12:12:00,82.3,57.0,29.88,South,176,3.6,4.0,42,0.00,,,0.00,VWS V13.01,2012-05-07 17:12:00,
2012-05-07 12:17:00,82.3,58.3,29.88,East,82,5.4,6.3,44,0.00,,,0.00,VWS V13.01,2012-05-07 17:17:00,
2012-05-07 12:22:00,82.3,58.3,29.88,NE,34,3.1,6.3,44,0.00,,,0.00,VWS V13.01,2012-05-07 17:22:00,
2012-05-07 12:27:00,82.7,57.3,29.88,East,96,2.7,3.1,42,0.00,,,0.00,VWS V13.01,2012-05-07 17:27:00,
2012-05-07 12:32:00,82.5,58.4,29.88,South,169,3.6,3.6,44,0.00,,,0.00,VWS V13.01,2012-05-07 17:32:00,
2012-05-07 12:37:00,83.1,58.9,29.88,NE,49,3.6,4.0,44,0.00,,,0.00,VWS V13.01,2012-05-07 17:37:00,
2012-05-07 12:42:00,83.8,58.9,29.88,ESE,102,2.7,6.3,43,0.00,,,0.00,VWS V13.01,2012-05-07 17:42:00,
2012-05-07 12:47:00,84.1,59.2,29.88,SE,127,5.4,5.8,43,0.00,,,0.00,VWS V13.01,2012-05-07 17:47:00,
2012-05-07 12:52:00,84.0,58.4,29.88,ENE,78,5.8,5.8,42,0.00,,,0.00,VWS V13.01,2012-05-07 17:52:00,
2012-05-07 12:57:00,83.6,58.1,29.88,East,83,4.0,6.3,42,0.00,,,0.00,VWS V13.01,2012-05-07 17:57:00,
2012-05-07 13:02:00,83.6,58.8,29.88,SSE,168,7.6,8.3,43,0.00,,,0.00,VWS V13.01,2012-05-07 18:02:00,
2012-05-07 13:07:00,83.1,58.3,29.88,SSE,166,5.8,8.3,43,0.00,,,0.00,VWS V13.01,2012-05-07 18:07:00,
2012-05-07 13:12:00,82.9,58.8,29.88,SE,131,5.8,5.8,44,0.00,,,0.00,VWS V13.01,2012-05-07 18:12:00,
2012-05-07 13:17:00,83.2,59.7,29.88,SSE,163,4.0,5.8,45,0.00,,,0.00,VWS V13.01,2012-05-07 18:17:00,
2012-05-07 13:22:00,83.4,60.5,29.88,SSE,147,5.4,5.4,46,0.00,,,0.00,VWS V13.01,2012-05-07 18:22:00,
2012-05-07 13:27:00,84.0,59.1,29.88,East,88,3.6,5.8,43,0.00,,,0.00,VWS V13.01,2012-05-07 18:27:00,
2012-05-07 13:32:00,84.1,59.2,29.88,WNW,300,2.7,2.7,43,0.00,,,0.00,VWS V13.01,2012-05-07 18:32:00,
2012-05-07 13:37:00,84.5,59.6,29.88,ESE,115,3.1,3.6,43,0.00,,,0.00,VWS V13.01,2012-05-07 18:37:00,
2012-05-07 13:42:00,84.7,59.1,29.88,NNW,339,2.2,3.1,42,0.00,,,0.00,VWS V13.01,2012-05-07 18:42:00,
2012-05-07 13:47:00,85.2,60.2,29.88,South,189,3.1,3.1,43,0.00,,,0.00,VWS V13.01,2012-05-07 18:47:00,
2012-05-07 13:52:00,84.9,59.2,29.88,SW,224,2.2,4.0,42,0.00,,,0.00,VWS V13.01,2012-05-07 18:52:00,
2012-05-07 13:58:00,84.7,61.6,29.88,SSE,165,3.6,5.4,46,0.00,,,0.00,VWS V13.01,2012-05-07 18:58:00,
2012-05-07 14:03:00,84.7,60.4,29.85,SE,133,2.2,4.0,44,0.00,,,0.00,VWS V13.01,2012-05-07 19:03:00,
2012-05-07 14:08:00,84.7,59.7,29.85,SSE,161,5.8,8.7,43,0.00,,,0.00,VWS V13.01,2012-05-07 19:08:00,
2012-05-07 14:13:00,84.1,59.2,29.85,South,184,8.3,8.3,43,0.00,,,0.00,VWS V13.01,2012-05-07 19:13:00,
2012-05-07 14:18:00,84.0,59.7,29.85,West,259,0.0,0.0,44,0.00,,,0.00,VWS V13.01,2012-05-07 19:18:00,
2012-05-07 14:23:00,84.7,60.4,29.85,SSW,193,4.0,4.0,44,0.00,,,0.00,VWS V13.01,2012-05-07 19:23:00,
2012-05-07 14:28:00,84.7,59.7,29.85,SE,131,3.1,5.8,43,0.00,,,0.00,VWS V13.01,2012-05-07 19:28:00,
2012-05-07 14:33:00,84.9,60.5,29.85,SW,234,5.4,6.3,44,0.00,,,0.00,VWS V13.01,2012-05-07 19:33:00,
2012-05-07 14:38:00,84.9,60.5,29.85,West,270,5.4,5.4,44,0.00,,,0.00,VWS V13.01,2012-05-07 19:38:00,
2012-05-07 14:43:00,85.0,60.7,29.85,West,263,4.0,4.0,44,0.00,,,0.00,VWS V13.01,2012-05-07 19:43:00,
2012-05-07 14:48:00,85.2,60.2,29.85,WSW,251,2.7,5.8,43,0.00,,,0.00,VWS V13.01,2012-05-07 19:48:00,
2012-05-07 14:53:00,85.0,60.1,29.85,SW,233,3.1,3.1,43,0.00,,,0.00,VWS V13.01,2012-05-07 19:53:00,
2012-05-07 14:58:00,85.4,59.0,29.85,West,262,2.2,2.7,41,0.00,,,0.00,VWS V13.01,2012-05-07 19:58:00,
2012-05-07 15:03:00,86.5,60.7,29.85,South,181,5.8,5.8,42,0.00,,,0.00,VWS V13.01,2012-05-07 20:03:00,
2012-05-07 15:08:00,86.8,61.0,29.85,SE,125,4.0,4.0,42,0.00,,,0.00,VWS V13.01,2012-05-07 20:08:00,
2012-05-07 15:13:00,87.2,60.7,29.85,SE,136,0.0,3.6,41,0.00,,,0.00,VWS V13.01,2012-05-07 20:13:00,
2012-05-07 15:18:00,87.6,61.0,29.85,WSW,252,2.7,4.0,41,0.00,,,0.00,VWS V13.01,2012-05-07 20:18:00,
2012-05-07 15:23:00,87.9,59.9,29.85,NW,320,0.0,3.6,39,0.00,,,0.00,VWS V13.01,2012-05-07 20:23:00,
2012-05-07 15:28:00,88.1,60.8,29.85,SSW,192,3.1,3.1,40,0.00,,,0.00,VWS V13.01,2012-05-07 20:28:00,
2012-05-07 15:33:00,87.4,60.1,29.83,SSE,157,2.2,4.0,40,0.00,,,0.00,VWS V13.01,2012-05-07 20:33:00,
2012-05-07 15:38:00,87.0,59.8,29.83,SSE,162,0.0,5.4,40,0.00,,,0.00,VWS V13.01,2012-05-07 20:38:00,
2012-05-07 15:43:00,87.0,59.8,29.83,NNW,331,2.7,4.9,40,0.00,,,0.00,VWS V13.01,2012-05-07 20:43:00,
2012-05-07 15:48:00,87.7,60.4,29.83,West,281,2.2,2.2,40,0.00,,,0.00,VWS V13.01,2012-05-07 20:48:00,
2012-05-07 15:53:00,88.3,60.9,29.83,SSW,203,0.0,0.0,40,0.00,,,0.00,VWS V13.01,2012-05-07 20:53:00,
2012-05-07 15:58:00,88.6,60.5,29.83,SSE,147,3.1,5.4,39,0.00,,,0.00,VWS V13.01,2012-05-07 20:58:00,
2012-05-07 16:03:00,87.9,60.6,29.83,SW,231,4.5,4.9,40,0.00,,,0.00,VWS V13.01,2012-05-07 21:03:00,
2012-05-07 16:08:00,86.8,59.6,29.83,WNW,285,2.7,4.0,40,0.00,,,0.00,VWS V13.01,2012-05-07 21:08:00,
2012-05-07 16:13:00,86.5,60.0,29.83,West,263,4.0,4.0,41,0.00,,,0.00,VWS V13.01,2012-05-07 21:13:00,
2012-05-07 16:18:00,86.1,60.4,29.83,West,270,2.7,3.1,42,0.00,,,0.00,VWS V13.01,2012-05-07 21:18:00,
2012-05-07 16:23:00,85.6,59.9,29.83,SW,235,3.6,3.6,42,0.00,,,0.00,VWS V13.01,2012-05-07 21:23:00,
2012-05-07 16:28:00,85.2,60.2,29.83,WSW,255,4.0,4.0,43,0.00,,,0.00,VWS V13.01,2012-05-07 21:28:00,
2012-05-07 16:33:00,84.7,59.7,29.83,West,263,0.0,4.0,43,0.00,,,0.00,VWS V13.01,2012-05-07 21:33:00,
2012-05-07 16:38:00,84.9,60.5,29.83,West,275,0.0,2.7,44,0.00,,,0.00,VWS V13.01,2012-05-07 21:38:00,
2012-05-07 16:43:00,84.5,60.2,29.83,WNW,301,3.6,5.8,44,0.00,,,0.00,VWS V13.01,2012-05-07 21:43:00,
2012-05-07 16:48:00,83.8,60.2,29.83,NW,308,3.6,5.4,45,0.00,,,0.00,VWS V13.01,2012-05-07 21:48:00,
2012-05-07 16:53:00,83.4,60.5,29.83,WNW,303,5.4,5.8,46,0.00,,,0.00,VWS V13.01,2012-05-07 21:53:00,
2012-05-07 16:58:00,83.4,61.7,29.83,West,269,2.7,4.0,48,0.00,,,0.00,VWS V13.01,2012-05-07 21:58:00,
2012-05-07 17:03:00,83.4,61.1,29.83,NW,306,2.7,4.0,47,0.00,,,0.00,VWS V13.01,2012-05-07 22:03:00,
2012-05-07 17:08:00,83.6,60.7,29.83,NNW,328,2.2,3.6,46,0.00,,,0.00,VWS V13.01,2012-05-07 22:08:00,
2012-05-07 17:13:00,83.6,61.3,29.83,NW,306,2.7,5.8,47,0.00,,,0.00,VWS V13.01,2012-05-07 22:13:00,
2012-05-07 17:18:00,84.0,62.2,29.83,WNW,295,0.0,0.0,48,0.00,,,0.00,VWS V13.01,2012-05-07 22:18:00,
2012-05-07 17:23:00,84.0,61.6,29.83,NNW,341,2.7,4.0,47,0.00,,,0.00,VWS V13.01,2012-05-07 22:23:00,
2012-05-07 17:28:00,84.1,61.8,29.83,NW,321,2.2,2.7,47,0.00,,,0.00,VWS V13.01,2012-05-07 22:28:00,
2012-05-07 17:34:00,84.0,61.0,29.83,NW,311,4.9,6.3,46,0.00,,,0.00,VWS V13.01,2012-05-07 22:34:00,
2012-05-07 17:39:00,83.8,61.4,29.83,NW,306,3.1,3.1,47,0.00,,,0.00,VWS V13.01,2012-05-07 22:39:00,
2012-05-07 17:44:00,83.8,62.0,29.83,NW,315,3.6,4.0,48,0.00,,,0.00,VWS V13.01,2012-05-07 22:44:00,
2012-05-07 17:49:00,83.4,61.7,29.83,NW,306,2.2,3.1,48,0.00,,,0.00,VWS V13.01,2012-05-07 22:49:00,
2012-05-07 17:54:00,83.4,62.3,29.83,NW,312,2.7,4.0,49,0.00,,,0.00,VWS V13.01,2012-05-07 22:54:00,
2012-05-07 17:59:00,83.2,62.1,29.80,North,356,0.0,2.2,49,0.00,,,0.00,VWS V13.01,2012-05-07 22:59:00,
2012-05-07 18:04:00,83.2,61.5,29.80,WNW,301,3.6,10.1,48,0.00,,,0.00,VWS V13.01,2012-05-07 23:04:00,
2012-05-07 18:09:00,83.8,61.4,29.80,NNW,338,4.9,4.9,47,0.00,,,0.00,VWS V13.01,2012-05-07 23:09:00,
2012-05-07 18:14:00,84.5,62.7,29.80,North,351,2.7,2.7,48,0.00,,,0.00,VWS V13.01,2012-05-07 23:14:00,
2012-05-07 18:19:00,84.9,61.2,29.80,NW,306,3.6,3.6,45,0.00,,,0.00,VWS V13.01,2012-05-07 23:19:00,
2012-05-07 18:24:00,85.2,61.5,29.80,NNE,30,0.0,2.2,45,0.00,,,0.00,VWS V13.01,2012-05-07 23:24:00,
2012-05-07 18:29:00,85.9,60.9,29.80,NW,304,7.6,7.6,43,0.00,,,0.00,VWS V13.01,2012-05-07 23:29:00,
2012-05-07 18:34:00,85.2,60.2,29.80,WNW,289,4.0,5.4,43,0.00,,,0.00,VWS V13.01,2012-05-07 23:34:00,
2012-05-07 18:39:00,84.7,59.7,29.80,NW,310,7.6,8.3,43,0.00,,,0.00,VWS V13.01,2012-05-07 23:39:00,
2012-05-07 18:44:00,85.0,60.7,29.83,NW,314,4.0,4.0,44,0.00,,,0.00,VWS V13.01,2012-05-07 23:44:00,
2012-05-07 18:49:00,85.4,59.7,29.83,NW,318,2.7,4.0,42,0.00,,,0.00,VWS V13.01,2012-05-07 23:49:00,
2012-05-07 18:54:00,85.4,60.4,29.83,North,352,2.7,4.0,43,0.00,,,0.00,VWS V13.01,2012-05-07 23:54:00,
2012-05-07 18:59:00,85.4,59.7,29.83,NNW,332,3.6,5.4,42,0.00,,,0.00,VWS V13.01,2012-05-07 23:59:00,
2012-05-07 19:04:00,84.9,59.2,29.83,North,1,4.9,5.4,42,0.00,,,0.00,VWS V13.01,2012-05-08 00:04:00,
2012-05-07 19:09:00,84.3,59.4,29.83,NW,318,2.2,4.0,43,0.00,,,0.00,VWS V13.01,2012-05-08 00:09:00,
2012-05-07 19:14:00,83.8,59.6,29.83,North,354,2.2,3.6,44,0.00,,,0.00,VWS V13.01,2012-05-08 00:14:00,
2012-05-07 19:19:00,83.2,59.1,29.83,NNW,330,5.4,5.8,44,0.00,,,0.00,VWS V13.01,2012-05-08 00:19:00,
2012-05-07 19:24:00,82.7,58.6,29.83,NNW,333,2.7,3.6,44,0.00,,,0.00,VWS V13.01,2012-05-08 00:24:00,
2012-05-07 19:29:00,82.3,58.9,29.83,NNW,332,5.8,5.8,45,0.00,,,0.00,VWS V13.01,2012-05-08 00:29:00,
2012-05-07 19:34:00,82.0,59.2,29.83,North,358,3.6,4.0,46,0.00,,,0.00,VWS V13.01,2012-05-08 00:34:00,
2012-05-07 19:39:00,81.8,59.0,29.83,NW,310,0.0,3.6,46,0.00,,,0.00,VWS V13.01,2012-05-08 00:39:00,
2012-05-07 19:44:00,81.6,59.5,29.83,NNW,345,4.0,4.0,47,0.00,,,0.00,VWS V13.01,2012-05-08 00:44:00,
2012-05-07 19:49:00,81.3,59.7,29.83,NNE,13,3.1,3.1,48,0.00,,,0.00,VWS V13.01,2012-05-08 00:49:00,
2012-05-07 19:54:00,81.1,59.5,29.83,North,360,0.0,3.1,48,0.00,,,0.00,VWS V13.01,2012-05-08 00:54:00,
2012-05-07 19:59:00,80.7,59.8,29.83,North,359,2.2,2.7,49,0.00,,,0.00,VWS V13.01,2012-05-08 00:59:00,
2012-05-07 20:04:00,80.4,60.0,29.83,NNW,339,5.4,5.4,50,0.00,,,0.00,VWS V13.01,2012-05-08 01:04:00,
2012-05-07 20:09:00,80.0,60.3,29.83,North,350,3.6,3.6,51,0.00,,,0.00,VWS V13.01,2012-05-08 01:09:00,
2012-05-07 20:14:00,79.6,59.9,29.85,NW,321,2.7,3.1,51,0.00,,,0.00,VWS V13.01,2012-05-08 01:14:00,
2012-05-07 20:19:00,79.5,60.3,29.85,North,9,0.0,4.0,52,0.00,,,0.00,VWS V13.01,2012-05-08 01:19:00,
2012-05-07 20:24:00,79.3,60.7,29.85,North,2,2.7,2.7,53,0.00,,,0.00,VWS V13.01,2012-05-08 01:24:00,
2012-05-07 20:29:00,78.9,59.8,29.85,North,355,3.1,3.1,52,0.00,,,0.00,VWS V13.01,2012-05-08 01:29:00,
2012-05-07 20:34:00,78.7,59.7,29.85,North,352,2.7,3.6,52,0.00,,,0.00,VWS V13.01,2012-05-08 01:34:00,
2012-05-07 20:39:00,78.6,59.5,29.85,NNE,14,2.7,3.6,52,0.00,,,0.00,VWS V13.01,2012-05-08 01:39:00,
2012-05-07 20:44:00,78.4,59.3,29.85,NNW,343,2.2,6.3,52,0.00,,,0.00,VWS V13.01,2012-05-08 01:44:00,
2012-05-07 20:49:00,78.2,59.2,29.85,NNW,340,2.2,2.7,52,0.00,,,0.00,VWS V13.01,2012-05-08 01:49:00,
2012-05-07 20:50:00,78.2,59.2,29.85,NNW,335,2.2,2.7,52,0.00,,,0.00,VWS V13.01,2012-05-08 01:50:00,
2012-05-07 20:54:00,78.0,59.5,29.85,NNW,335,5.8,5.8,53,0.00,,,0.00,VWS V13.01,2012-05-08 01:54:00,
2012-05-07 20:59:00,77.8,59.3,29.85,NW,313,2.7,4.9,53,0.00,,,0.00,VWS V13.01,2012-05-08 01:59:00,
2012-05-07 21:04:00,77.5,59.0,29.85,North,359,4.0,4.0,53,0.00,,,0.00,VWS V13.01,2012-05-08 02:04:00,
2012-05-07 21:09:00,77.3,58.8,29.85,NNW,347,3.6,4.0,53,0.00,,,0.00,VWS V13.01,2012-05-08 02:09:00,
2012-05-07 21:14:00,77.1,58.7,29.85,North,357,4.0,4.0,53,0.00,,,0.00,VWS V13.01,2012-05-08 02:14:00,
2012-05-07 21:20:00,77.1,58.7,29.85,NW,322,3.1,3.1,53,0.00,,,0.00,VWS V13.01,2012-05-08 02:20:00,
2012-05-07 21:25:00,76.9,58.5,29.85,NNW,346,2.7,2.7,53,0.00,,,0.00,VWS V13.01,2012-05-08 02:25:00,
2012-05-07 21:30:00,76.9,58.5,29.88,NNE,22,3.1,3.1,53,0.00,,,0.00,VWS V13.01,2012-05-08 02:30:00,
2012-05-07 21:35:00,76.8,58.4,29.88,North,358,3.1,4.5,53,0.00,,,0.00,VWS V13.01,2012-05-08 02:35:00,
2012-05-07 21:40:00,76.8,58.9,29.88,North,2,0.0,3.1,54,0.00,,,0.00,VWS V13.01,2012-05-08 02:40:00,
2012-05-07 21:45:00,76.8,58.9,29.88,North,8,3.6,3.6,54,0.00,,,0.00,VWS V13.01,2012-05-08 02:45:00,
2012-05-07 21:49:00,76.6,58.7,29.88,NNW,346,2.2,3.6,54,0.00,,,0.00,VWS V13.01,2012-05-08 02:49:00,
2012-05-07 21:54:00,76.6,58.7,29.88,NNW,348,2.2,2.2,54,0.00,,,0.00,VWS V13.01,2012-05-08 02:54:00,
2012-05-07 21:59:00,76.6,59.2,29.88,NE,51,2.7,2.7,55,0.00,,,0.00,VWS V13.01,2012-05-08 02:59:00,
2012-05-07 22:04:00,76.4,58.5,29.88,NE,56,4.0,4.9,54,0.00,,,0.00,VWS V13.01,2012-05-08 03:04:00,
2012-05-07 22:09:00,76.4,59.1,29.88,NNE,24,3.1,4.0,55,0.00,,,0.00,VWS V13.01,2012-05-08 03:09:00,
2012-05-07 22:14:00,76.4,58.5,29.88,WNW,295,3.6,4.9,54,0.00,,,0.00,VWS V13.01,2012-05-08 03:14:00,
2012-05-07 22:19:00,76.4,59.1,29.88,North,3,4.0,4.0,55,0.00,,,0.00,VWS V13.01,2012-05-08 03:19:00,
2012-05-07 22:24:00,76.2,58.9,29.88,North,350,0.0,2.7,55,0.00,,,0.00,VWS V13.01,2012-05-08 03:24:00,
2012-05-07 22:29:00,75.9,59.1,29.88,NW,317,6.3,6.7,56,0.00,,,0.00,VWS V13.01,2012-05-08 03:29:00,
2012-05-07 22:34:00,75.7,58.9,29.88,NNW,344,3.1,3.6,56,0.00,,,0.00,VWS V13.01,2012-05-08 03:34:00,
2012-05-07 22:35:00,75.7,58.9,29.88,East,79,3.6,3.6,56,0.00,,,0.00,VWS V13.01,2012-05-08 03:35:00,
2012-05-07 22:40:00,75.5,58.7,29.88,NNW,343,0.0,4.9,56,0.00,,,0.00,VWS V13.01,2012-05-08 03:40:00,
2012-05-07 22:45:00,75.3,58.6,29.88,North,7,5.4,8.1,56,0.00,,,0.00,VWS V13.01,2012-05-08 03:45:00,
2012-05-07 22:50:00,75.3,58.6,29.88,NNE,21,4.0,4.0,56,0.00,,,0.00,VWS V13.01,2012-05-08 03:50:00,
2012-05-07 22:55:00,75.3,58.6,29.88,NW,308,3.6,3.6,56,0.00,,,0.00,VWS V13.01,2012-05-08 03:55:00,
2012-05-07 23:00:00,75.1,58.4,29.91,NW,322,2.7,3.1,56,0.00,,,0.00,VWS V13.01,2012-05-08 04:00:00,
2012-05-07 23:01:00,75.1,58.4,29.91,NNE,17,3.1,3.1,56,0.00,,,0.00,VWS V13.01,2012-05-08 04:01:00,
2012-05-07 23:06:00,75.0,58.2,29.91,NNE,12,0.0,2.2,56,0.00,,,0.00,VWS V13.01,2012-05-08 04:06:00,
2012-05-07 23:10:00,75.0,57.7,29.91,North,350,3.1,3.1,55,0.00,,,0.00,VWS V13.01,2012-05-08 04:10:00,
2012-05-07 23:15:00,75.0,58.2,29.91,NNW,330,0.0,0.0,56,0.00,,,0.00,VWS V13.01,2012-05-08 04:15:00,
2012-05-07 23:20:00,75.0,58.2,29.91,NNW,334,0.0,0.0,56,0.00,,,0.00,VWS V13.01,2012-05-08 04:20:00,
2012-05-07 23:25:00,74.8,57.5,29.91,NW,309,2.2,3.6,55,0.00,,,0.00,VWS V13.01,2012-05-08 04:25:00,
2012-05-07 23:30:00,74.8,57.5,29.91,NW,320,0.0,0.0,55,0.00,,,0.00,VWS V13.01,2012-05-08 04:30:00,
2012-05-07 23:35:00,74.8,57.5,29.91,North,359,0.0,2.7,55,0.00,,,0.00,VWS V13.01,2012-05-08 04:35:00,
2012-05-07 23:40:00,74.8,57.5,29.91,North,350,0.0,0.0,55,0.00,,,0.00,VWS V13.01,2012-05-08 04:40:00,
2012-05-07 23:45:00,74.6,57.4,29.91,North,350,0.0,0.0,55,0.00,,,0.00,VWS V13.01,2012-05-08 04:45:00,
2012-05-07 23:50:00,74.6,57.9,29.91,North,350,0.0,0.0,56,0.00,,,0.00,VWS V13.01,2012-05-08 04:50:00,
2012-05-07 23:55:00,74.4,57.7,29.91,North,351,0.0,0.0,56,0.00,,,0.00,VWS V13.01,2012-05-08 04:55:00,